Tracking 29487 objects as of 11-Sep-2024
HD Live streaming from Space Station
objects crossing your sky now

STARLINK-31699

Track STARLINK-31699 now!
10-day predictions
STARLINK-31699 is classified as:


NORAD ID: 59551
Int'l Code: 2024-074T
Perigee: 449.8 km
Apogee: 452.6 km
Inclination: 43.0 °
Period: 93.5 minutes
Semi major axis: 6822 km
RCS: Unknown
Launch date: April 18, 2024
Source: United States (US)
Launch site: AIR FORCE EASTERN TEST RANGE (AFETR)
Your satellite tracking list
Your tracking list is empty




NASA's NSSDC Master Catalog

Two Line Element Set (TLE):
1 59551U 24074T   24254.89252103 -.00004425  00000-0 -98738-4 0  9995
2 59551  43.0035 201.1087 0002019 271.8290  88.2336 15.40694635 22458
Source of the keplerian elements: AFSPC